Location: Seattle
(47.6064°N, 122.3308°W)
Time: 13:46:14
(UTC-08:00)

Vanguard 2 - Visible Passes

Search period start: 28 November 2021 00:00
Search period end: 08 December 2021 00:00
Orbit: 554 x 2936 km, 32.9° (Epoch: 27 November)

Date Brightness Start Highest point End Pass type
(mag) Time Alt. Az. Time Alt. Az. Time Alt. Az.
28 Nov 10.6 18:44:32 10° WSW 18:53:04 32° SSW 19:05:20 10° SE visible
28 Nov 11.3 20:54:35 10° WSW 21:02:41 19° SSW 21:07:12 17° S visible
29 Nov 10.3 16:54:35 10° WSW 17:01:27 33° S 17:11:54 10° ESE visible
29 Nov 10.8 19:02:22 10° WSW 19:10:34 28° SSW 19:22:01 10° SSE visible
29 Nov 11.5 21:14:05 10° WSW 21:20:05 14° SSW 21:24:45 12° SSW visible
30 Nov 10.4 17:12:05 10° WSW 17:18:55 31° S 17:29:10 10° SE visible
30 Nov 11.0 19:20:26 10° WSW 19:28:04 23° SSW 19:38:19 10° SSE visible
01 Dec 10.6 17:29:44 10° WSW 17:36:25 28° S 17:46:15 10° SE visible
01 Dec 11.2 19:38:53 10° WSW 19:45:34 18° SSW 19:54:02 10° SSE visible
02 Dec 10.7 17:47:30 10° WSW 17:53:56 25° SSW 18:03:02 10° SE visible
02 Dec 11.5 19:58:13 10° SW 20:03:03 13° SSW 20:08:42 10° S visible
03 Dec 10.9 18:05:32 10° WSW 18:11:27 20° SSW 18:19:27 10° SSE visible
04 Dec 11.2 18:23:58 10° SW 18:28:59 16° SSW 18:35:18 10° SSE visible
05 Dec 11.4 18:43:32 10° SW 18:46:31 12° SSW 18:49:52 10° S visible
06 Dec 10.9 16:51:10 10° SW 16:55:24 17° SSW 17:00:53 10° SSE visible
07 Dec 11.2 17:09:46 10° SW 17:12:55 13° SSW 17:16:40 10° S visible
